TimeMST,TemperatureF,Dew PointF,Humidity,Sea Level PressureIn,VisibilityMPH,Wind Direction,Wind SpeedMPH,Gust SpeedMPH,PrecipitationIn,Events,Conditions,WindDirDegrees,DateUTC
12:51 AM,3.0,-0.9,84,30.53,10.0,NE,3.5,-,N/A,,Clear,40,2013-01-05 07:51:00
1:51 AM,1.9,-2.9,80,30.52,10.0,Calm,Calm,-,N/A,,Clear,0,2013-01-05 08:51:00
3:51 AM,-0.9,-5.1,83,30.55,10.0,Calm,Calm,-,N/A,,Clear,0,2013-01-05 10:51:00
5:06 AM,-0.4,-5.8,78,30.28,10.0,Calm,Calm,-,N/A,,Scattered Clouds,0,2013-01-05 12:06:00
5:15 AM,-0.4,-5.8,78,30.28,10.0,Calm,Calm,-,N/A,,Mostly Cloudy,0,2013-01-05 12:15:00
5:51 AM,-2.9,-6.0,87,30.54,10.0,Calm,Calm,-,N/A,,Scattered Clouds,0,2013-01-05 12:51:00
6:51 AM,-0.9,-6.0,79,30.55,10.0,Calm,Calm,-,N/A,,Partly Cloudy,0,2013-01-05 13:51:00
7:09 AM,-2.2,-7.6,78,30.27,10.0,Calm,Calm,-,N/A,,Mostly Cloudy,0,2013-01-05 14:09:00
7:17 AM,-2.2,-5.8,85,30.27,10.0,Calm,Calm,-,N/A,,Scattered Clouds,0,2013-01-05 14:17:00
8:11 AM,-0.4,-5.8,78,30.26,9.0,Calm,Calm,-,N/A,,Scattered Clouds,0,2013-01-05 15:11:00
8:21 AM,-0.4,-5.8,78,30.26,6.0,Calm,Calm,-,N/A,,Haze,0,2013-01-05 15:21:00
8:36 AM,-0.4,-5.8,78,30.26,7.0,Calm,Calm,-,N/A,,Scattered Clouds,0,2013-01-05 15:36:00
8:51 AM,1.0,-5.1,75,30.55,10.0,Calm,Calm,-,N/A,,Clear,0,2013-01-05 15:51:00
9:51 AM,3.0,-0.9,84,30.55,8.0,Calm,Calm,-,N/A,,Clear,0,2013-01-05 16:51:00
10:51 AM,5.0,1.9,87,30.56,10.0,SSE,3.5,-,N/A,,Clear,150,2013-01-05 17:51:00
11:51 AM,8.1,6.1,92,30.53,10.0,Calm,Calm,-,N/A,,Clear,0,2013-01-05 18:51:00
12:51 PM,14.0,9.0,80,30.47,10.0,Calm,Calm,-,N/A,,Clear,0,2013-01-05 19:51:00
1:51 PM,16.0,10.0,77,30.44,10.0,SSE,3.5,-,N/A,,Clear,160,2013-01-05 20:51:00
2:51 PM,18.0,12.0,78,30.41,10.0,Calm,Calm,-,N/A,,Clear,0,2013-01-05 21:51:00
3:51 PM,19.0,12.0,74,30.43,10.0,Calm,Calm,-,N/A,,Clear,0,2013-01-05 22:51:00
4:51 PM,21.9,12.9,68,30.41,10.0,Calm,Calm,-,N/A,,Clear,0,2013-01-05 23:51:00
5:51 PM,17.1,10.9,77,30.43,10.0,ENE,4.6,-,N/A,,Clear,70,2013-01-06 00:51:00
6:51 PM,15.1,10.0,80,30.42,10.0,Calm,Calm,-,N/A,,Clear,0,2013-01-06 01:51:00
7:51 PM,14.0,10.0,84,30.42,10.0,Calm,Calm,-,N/A,,Clear,0,2013-01-06 02:51:00
8:51 PM,14.0,10.9,88,30.39,10.0,Calm,Calm,-,N/A,,Clear,0,2013-01-06 03:51:00
10:51 PM,18.0,12.9,81,30.35,10.0,Calm,Calm,-,N/A,,Overcast,0,2013-01-06 05:51:00
11:51 PM,16.0,10.9,81,30.34,10.0,East,3.5,-,N/A,,Mostly Cloudy,90,2013-01-06 06:51:00